Back to catalog

STARLINK-4109

AliveCommunicationsVLEO
NORAD 53268·PAYLOAD·🇺🇸 United States

Launched Jul 24, 2022 from Cape Canaveral Space Force Station

Loading…

Next Passes (next 24 hours)

TLE

FreshSource: CelesTrak SupGP

Epoch: Sep 14, 2026, 20:49 UTC

1 53268C 22086AC  26257.86784722  .00050830  00000+0  15017-2 0  2576
2 53268  53.1597  51.8576 0001236  63.1732 357.8777 15.34367635    10

Track STARLINK-4109 in real time with AllMySat

Download on the App Store